| time (UTC) | temp C | wind direction | speed KPH | gust KPH | rain 1hr cm | rain 24hr cm | rain mn cm | humidity % | barometer mb |
| 20260502152059 | 5 | 28 | 0.0 | 6.4 | 0.03 | 0.94 | 0.28 | 96 | 1017.2 |
| 20260502151527 | 5 | 29 | 0.0 | 0.0 | 0.03 | 1.02 | 0.28 | 96 | 1017.2 |
| 20260502151100 | 4 | 29 | 0.0 | 3.2 | 0.03 | 1.02 | 0.28 | 96 | 1017.2 |
| 20260502150550 | 4 | 29 | 0.0 | 6.4 | 0.05 | 1.02 | 0.28 | 96 | 1017.1 |
| 20260502130546 | 2 | 26 | 0.0 | 4.8 | 0.05 | 0.99 | 0.18 | 96 | 1016.5 |
| 20260502123600 | 2 | 28 | 0.0 | 6.4 | 0.08 | 0.97 | 0.15 | 95 | 1016.6 |
| 20260502123031 | 2 | 28 | 1.6 | 6.4 | 0.08 | 0.97 | 0.15 | 95 | 1016.6 |
| 20260502122543 | 2 | 28 | 0.0 | 0.0 | 0.05 | 0.94 | 0.13 | 95 | 1016.6 |
| 20260502122055 | 2 | 28 | 0.0 | 4.8 | 0.05 | 0.94 | 0.13 | 95 | 1016.6 |
| 20260502121527 | 2 | 28 | 0.0 | 9.7 | 0.05 | 0.99 | 0.13 | 95 | 1016.5 |
| 20260502121039 | 3 | 28 | 4.8 | 9.7 | 0.08 | 0.99 | 0.13 | 95 | 1016.5 |
| 20260502120531 | 3 | 19 | 1.6 | 4.8 | 0.08 | 0.99 | 0.13 | 95 | 1016.4 |
| 20260502115539 | 2 | 19 | 0.0 | 0.0 | 0.05 | 0.97 | 0.10 | 95 | 1016.2 |
| 20260502115031 | 2 | 19 | 0.0 | 0.0 | 0.05 | 0.97 | 0.10 | 95 | 1016.2 |
| 20260502114033 | 2 | 19 | 0.0 | 0.0 | 0.03 | 0.94 | 0.08 | 95 | 1016.1 |
| 20260502113544 | 2 | 19 | 0.0 | 0.0 | 0.03 | 0.94 | 0.08 | 95 | 1016.1 |
| 20260502113036 | 2 | 19 | 0.0 | 0.0 | 0.03 | 0.94 | 0.08 | 95 | 1016.0 |
| 20260502112548 | 2 | 19 | 0.0 | 0.0 | 0.03 | 0.94 | 0.08 | 95 | 1016.0 |
| 20260502112039 | 2 | 19 | 0.0 | 0.0 | 0.03 | 0.94 | 0.08 | 95 | 1015.9 |
| 20260502111527 | 2 | 19 | 0.0 | 0.0 | 0.03 | 0.97 | 0.08 | 95 | 1015.9 |
| 20260502111059 | 3 | 19 | 0.0 | 0.0 | 0.00 | 0.94 | 0.05 | 95 | 1015.9 |
| 20260502110534 | 3 | 19 | 0.0 | 8.0 | 0.00 | 0.94 | 0.05 | 95 | 1016.0 |
| 20260502110046 | 3 | 19 | 0.0 | 8.0 | 0.00 | 0.94 | 0.05 | 95 | 1015.9 |
| 20260502105538 | 3 | 21 | 0.0 | 9.7 | 0.00 | 0.94 | 0.05 | 95 | 1015.8 |
| 20260502105030 | 3 | 13 | 3.2 | 8.0 | 0.00 | 0.94 | 0.05 | 95 | 1015.7 |
| 20260502104542 | 3 | 12 | 0.0 | 0.0 | 0.00 | 0.94 | 0.05 | 95 | 1015.5 |
| 20260502104034 | 3 | 12 | 0.0 | 0.0 | 0.00 | 0.94 | 0.05 | 95 | 1015.4 |
| 20260502103526 | 3 | 12 | 0.0 | 0.0 | 0.00 | 0.94 | 0.05 | 96 | 1015.3 |
| 20260502103039 | 3 | 12 | 0.0 | 0.0 | 0.00 | 0.94 | 0.05 | 96 | 1015.2 |
| 20260502102535 | 3 | 12 | 0.0 | 0.0 | 0.00 | 0.94 | 0.05 | 95 | 1015.1 |
| 20260502102107 | 3 | 12 | 0.0 | 0.0 | 0.00 | 0.94 | 0.05 | 95 | 1015.1 |
| 20260502101538 | 3 | 12 | 0.0 | 0.0 | 0.00 | 0.97 | 0.05 | 95 | 1015.0 |
| 20260502101030 | 3 | 12 | 0.0 | 0.0 | 0.00 | 0.97 | 0.05 | 95 | 1015.0 |
| 20260502100542 | 3 | 12 | 0.0 | 0.0 | 0.00 | 0.97 | 0.05 | 95 | 1015.1 |
| 20260502091036 | 3 | 9 | 0.0 | 0.0 | 0.03 | 0.99 | 0.05 | 95 | 1014.9 |
| 20260502090548 | 3 | 9 | 0.0 | 0.0 | 0.03 | 0.99 | 0.05 | 95 | 1014.9 |
| 20260502071036 | 3 | 5 | 0.0 | 0.0 | 0.00 | 0.97 | 0.03 | 94 | 1014.9 |
| 20260502070548 | 3 | 5 | 0.0 | 0.0 | 0.00 | 0.97 | 0.03 | 94 | 1014.9 |
| 20260502070039 | 3 | 5 | 0.0 | 0.0 | 0.00 | 0.97 | 0.03 | 94 | 1015.0 |
| 20260502065531 | 3 | 5 | 0.0 | 0.0 | 0.00 | 0.97 | 0.03 | 94 | 1014.9 |
| 20260502065043 | 3 | 5 | 0.0 | 8.0 | 0.00 | 0.97 | 0.03 | 94 | 1014.8 |
| 20260502064556 | 3 | 5 | 1.6 | 8.0 | 0.00 | 0.97 | 0.03 | 94 | 1014.8 |
| 20260502064107 | 3 | 5 | 0.0 | 0.0 | 0.00 | 0.97 | 0.03 | 94 | 1014.9 |
| 20260502063538 | 3 | 5 | 0.0 | 0.0 | 0.00 | 0.97 | 0.03 | 94 | 1015.0 |
| 20260502063034 | 3 | 5 | 0.0 | 0.0 | 0.00 | 0.97 | 0.03 | 94 | 1015.0 |
| 20260502062526 | 3 | 5 | 0.0 | 0.0 | 0.03 | 0.97 | 0.03 | 94 | 1015.1 |
| 20260502062040 | 3 | 5 | 0.0 | 0.0 | 0.03 | 0.97 | 0.03 | 94 | 1015.0 |
| 20260502061044 | 3 | 5 | 0.0 | 0.0 | 0.03 | 0.97 | 0.03 | 94 | 1015.2 |
| 20260502060536 | 3 | 5 | 0.0 | 0.0 | 0.03 | 0.97 | 0.03 | 94 | 1015.1 |
| 20260502060047 | 3 | 5 | 0.0 | 0.0 | 0.03 | 0.97 | 0.03 | 94 | 1015.2 |
| 20260502055559 | 4 | 5 | 0.0 | 0.0 | 0.03 | 0.97 | 0.03 | 94 | 1015.4 |
| 20260502055030 | 4 | 5 | 0.0 | 8.0 | 0.03 | 0.97 | 0.03 | 94 | 1015.4 |
| 20260502054542 | 4 | 5 | 0.0 | 8.0 | 0.03 | 0.97 | 0.03 | 94 | 1015.5 |
| 20260502054038 | 4 | 5 | 0.0 | 0.0 | 0.03 | 0.97 | 0.03 | 94 | 1015.6 |
| 20260502053530 | 4 | 5 | 0.0 | 0.0 | 0.03 | 0.97 | 0.03 | 94 | 1015.6 |
| 20260502053043 | 4 | 5 | 0.0 | 0.0 | 0.03 | 0.97 | 0.03 | 94 | 1015.6 |
| 20260502052535 | 4 | 5 | 0.0 | 0.0 | 0.00 | 0.94 | 0.00 | 94 | 1015.6 |
| 20260502052027 | 5 | 5 | 0.0 | 0.0 | 0.00 | 0.94 | 0.00 | 94 | 1015.7 |
| 20260502051538 | 5 | 5 | 0.0 | 0.0 | 0.00 | 0.94 | 0.00 | 94 | 1015.7 |
| 20260502051030 | 4 | 5 | 0.0 | 0.0 | 0.00 | 0.94 | 0.00 | 94 | 1015.6 |
| 20260502050540 | 4 | 5 | 0.0 | 0.0 | 0.03 | 0.94 | 0.00 | 94 | 1015.6 |
| 20260502050035 | 4 | 5 | 0.0 | 3.2 | 0.03 | 0.94 | 0.00 | 94 | 1015.5 |
| 20260502045546 | 4 | 5 | 0.0 | 3.2 | 0.03 | 0.94 | 0.94 | 93 | 1015.5 |
| 20260502045037 | 4 | 355 | 0.0 | 0.0 | 0.03 | 0.94 | 0.94 | 93 | 1015.5 |
| 20260502044548 | 4 | 355 | 0.0 | 0.0 | 0.05 | 0.94 | 0.94 | 93 | 1015.5 |
| 20260502044040 | 4 | 351 | 0.0 | 0.0 | 0.05 | 0.94 | 0.94 | 93 | 1015.6 |
| 20260502043532 | 4 | 351 | 0.0 | 0.0 | 0.08 | 0.94 | 0.94 | 93 | 1015.7 |
| 20260502043044 | 5 | 351 | 0.0 | 0.0 | 0.08 | 0.94 | 0.94 | 93 | 1015.8 |
| 20260502042536 | 5 | 351 | 0.0 | 0.0 | 0.08 | 0.94 | 0.94 | 93 | 1015.8 |
| 20260502042027 | 5 | 351 | 0.0 | 0.0 | 0.10 | 0.94 | 0.94 | 93 | 1015.8 |
| 20260502041539 | 5 | 351 | 0.0 | 0.0 | 0.10 | 0.94 | 0.94 | 93 | 1015.8 |
| 20260502041035 | 5 | 351 | 0.0 | 0.0 | 0.10 | 0.94 | 0.94 | 93 | 1015.8 |
| 20260502040528 | 5 | 351 | 0.0 | 0.0 | 0.10 | 0.91 | 0.91 | 93 | 1015.9 |
| 20260502040041 | 5 | 351 | 0.0 | 0.0 | 0.10 | 0.91 | 0.91 | 93 | 1016.0 |
| 20260502035532 | 5 | 351 | 0.0 | 0.0 | 0.10 | 0.91 | 0.91 | 93 | 1015.8 |
| 20260502035043 | 5 | 351 | 0.0 | 0.0 | 0.10 | 0.91 | 0.91 | 92 | 1015.7 |
| 20260502034533 | 5 | 351 | 0.0 | 0.0 | 0.10 | 0.89 | 0.89 | 92 | 1015.7 |
| 20260502034105 | 5 | 351 | 0.0 | 0.0 | 0.10 | 0.89 | 0.89 | 92 | 1015.7 |
| 20260502033536 | 5 | 351 | 0.0 | 0.0 | 0.10 | 0.86 | 0.86 | 92 | 1015.7 |
| 20260502033027 | 5 | 351 | 0.0 | 0.0 | 0.10 | 0.86 | 0.86 | 91 | 1015.7 |
| 20260502032538 | 5 | 351 | 0.0 | 0.0 | 0.10 | 0.86 | 0.86 | 91 | 1015.6 |
| 20260502032034 | 5 | 351 | 0.0 | 0.0 | 0.08 | 0.84 | 0.84 | 91 | 1015.6 |
| 20260502031545 | 5 | 351 | 0.0 | 0.0 | 0.08 | 0.84 | 0.84 | 90 | 1015.6 |
| 20260502031035 | 5 | 351 | 0.0 | 0.0 | 0.08 | 0.84 | 0.84 | 90 | 1015.5 |
| 20260502030526 | 5 | 351 | 0.0 | 0.0 | 0.05 | 0.81 | 0.81 | 90 | 1015.5 |
| 20260502030039 | 5 | 351 | 0.0 | 0.0 | 0.05 | 0.81 | 0.81 | 90 | 1015.4 |
| 20260502025531 | 5 | 351 | 0.0 | 0.0 | 0.08 | 0.81 | 0.81 | 89 | 1015.4 |
| 20260502025101 | 5 | 351 | 0.0 | 0.0 | 0.08 | 0.81 | 0.81 | 89 | 1015.6 |
| 20260502024532 | 5 | 351 | 0.0 | 3.2 | 0.05 | 0.79 | 0.79 | 89 | 1015.6 |
| 20260502024042 | 6 | 351 | 0.0 | 8.0 | 0.08 | 0.79 | 0.79 | 89 | 1015.6 |
| 20260502023535 | 6 | 351 | 0.0 | 8.0 | 0.05 | 0.76 | 0.76 | 88 | 1015.6 |
| 20260502023031 | 6 | 350 | 1.6 | 8.0 | 0.05 | 0.76 | 0.76 | 87 | 1015.6 |
| 20260502022603 | 6 | 350 | 1.6 | 8.0 | 0.05 | 0.76 | 0.76 | 86 | 1015.5 |
| 20260502022034 | 6 | 226 | 0.0 | 16.1 | 0.05 | 0.76 | 0.76 | 86 | 1015.4 |
| 20260502021546 | 6 | 230 | 8.0 | 16.1 | 0.05 | 0.76 | 0.76 | 87 | 1015.4 |
| 20260502021058 | 6 | 263 | 6.4 | 9.7 | 0.05 | 0.76 | 0.76 | 89 | 1015.2 |
| 20260502020529 | 6 | 29 | 0.0 | 0.0 | 0.05 | 0.76 | 0.76 | 89 | 1015.1 |
| 20260502020041 | 6 | 29 | 0.0 | 0.0 | 0.05 | 0.76 | 0.76 | 89 | 1015.0 |
| 20260502015553 | 6 | 29 | 0.0 | 0.0 | 0.03 | 0.74 | 0.74 | 88 | 1015.0 |
| 20260502015043 | 6 | 29 | 0.0 | 0.0 | 0.03 | 0.74 | 0.74 | 88 | 1014.9 |
| 20260502014536 | 6 | 29 | 0.0 | 0.0 | 0.03 | 0.74 | 0.74 | 88 | 1014.8 |
| 20260502014032 | 6 | 29 | 0.0 | 0.0 | 0.00 | 0.71 | 0.71 | 88 | 1014.7 |
| 20260502013545 | 6 | 29 | 0.0 | 0.0 | 0.00 | 0.71 | 0.71 | 88 | 1014.7 |
| 20260502013037 | 6 | 29 | 0.0 | 0.0 | 0.00 | 0.71 | 0.71 | 87 | 1014.7 |
| 20260502012549 | 6 | 29 | 0.0 | 0.0 | 0.00 | 0.71 | 0.71 | 87 | 1014.7 |
| 20260502012041 | 6 | 29 | 0.0 | 0.0 | 0.00 | 0.71 | 0.71 | 87 | 1014.6 |
| 20260502011554 | 6 | 29 | 0.0 | 0.0 | 0.03 | 0.71 | 0.71 | 86 | 1014.5 |
| 20260502011045 | 6 | 29 | 0.0 | 0.0 | 0.03 | 0.71 | 0.71 | 86 | 1014.5 |
| 20260502010537 | 6 | 29 | 0.0 | 0.0 | 0.03 | 0.71 | 0.71 | 86 | 1014.5 |
| 20260502010029 | 6 | 29 | 0.0 | 0.0 | 0.03 | 0.71 | 0.71 | 85 | 1014.5 |
| 20260502005545 | 6 | 29 | 0.0 | 0.0 | 0.03 | 0.71 | 0.71 | 85 | 1014.6 |
| 20260502005037 | 6 | 29 | 0.0 | 0.0 | 0.03 | 0.71 | 0.71 | 84 | 1014.6 |
| 20260502004528 | 6 | 29 | 0.0 | 0.0 | 0.03 | 0.71 | 0.71 | 83 | 1014.6 |
| 20260502004041 | 6 | 29 | 0.0 | 0.0 | 0.03 | 0.71 | 0.71 | 83 | 1014.5 |
| 20260502003553 | 6 | 29 | 0.0 | 0.0 | 0.03 | 0.71 | 0.71 | 83 | 1014.4 |
| 20260502003104 | 6 | 29 | 0.0 | 0.0 | 0.03 | 0.71 | 0.71 | 83 | 1014.3 |
| 20260502002555 | 6 | 29 | 0.0 | 0.0 | 0.05 | 0.71 | 0.71 | 83 | 1014.1 |
| 20260502002027 | 6 | 29 | 0.0 | 0.0 | 0.05 | 0.71 | 0.71 | 83 | 1014.1 |
| 20260502001539 | 6 | 29 | 0.0 | 0.0 | 0.03 | 0.69 | 0.69 | 82 | 1014.1 |
| 20260502001031 | 6 | 29 | 0.0 | 0.0 | 0.03 | 0.69 | 0.69 | 82 | 1014.0 |
| 20260502000527 | 6 | 29 | 0.0 | 0.0 | 0.03 | 0.69 | 0.69 | 82 | 1014.0 |
| 20260502000101 | 6 | 29 | 0.0 | 0.0 | 0.03 | 0.69 | 0.69 | 82 | 1013.9 |
| 20260501235532 | 6 | 29 | 0.0 | 0.0 | 0.03 | 0.69 | 0.69 | 81 | 1013.9 |
| 20260501235104 | 7 | 29 | 0.0 | 0.0 | 0.03 | 0.69 | 0.69 | 81 | 1013.8 |
| 20260501234535 | 7 | 29 | 0.0 | 0.0 | 0.03 | 0.69 | 0.69 | 80 | 1013.8 |
| 20260501234027 | 7 | 29 | 0.0 | 0.0 | 0.03 | 0.69 | 0.69 | 80 | 1013.7 |
| 20260501233600 | 7 | 29 | 0.0 | 0.0 | 0.03 | 0.69 | 0.69 | 80 | 1013.8 |
| 20260501233031 | 7 | 29 | 0.0 | 0.0 | 0.03 | 0.69 | 0.69 | 80 | 1013.8 |
| 20260501232542 | 7 | 29 | 0.0 | 0.0 | 0.05 | 0.69 | 0.69 | 79 | 1013.8 |
| 20260501232034 | 7 | 29 | 0.0 | 0.0 | 0.03 | 0.66 | 0.66 | 79 | 1013.8 |
| 20260501231530 | 7 | 29 | 0.0 | 0.0 | 0.03 | 0.66 | 0.66 | 79 | 1013.8 |
| 20260501231042 | 7 | 29 | 0.0 | 0.0 | 0.03 | 0.66 | 0.66 | 79 | 1013.7 |
| 20260501230534 | 7 | 29 | 0.0 | 0.0 | 0.03 | 0.66 | 0.66 | 80 | 1013.7 |
| 20260501230046 | 7 | 30 | 0.0 | 0.0 | 0.03 | 0.66 | 0.66 | 80 | 1013.6 |
| 20260501225538 | 7 | 44 | 0.0 | 0.0 | 0.03 | 0.66 | 0.66 | 81 | 1013.7 |
| 20260501225030 | 7 | 44 | 0.0 | 0.0 | 0.03 | 0.66 | 0.66 | 81 | 1013.7 |
| 20260501224540 | 7 | 44 | 0.0 | 0.0 | 0.05 | 0.66 | 0.66 | 81 | 1013.6 |
| 20260501224032 | 7 | 44 | 0.0 | 0.0 | 0.05 | 0.66 | 0.66 | 80 | 1013.5 |
| 20260501223528 | 7 | 44 | 0.0 | 0.0 | 0.05 | 0.66 | 0.66 | 81 | 1013.6 |
| 20260501223041 | 7 | 44 | 0.0 | 0.0 | 0.05 | 0.66 | 0.66 | 81 | 1013.7 |
| 20260501222533 | 7 | 44 | 0.0 | 0.0 | 0.05 | 0.66 | 0.66 | 81 | 1013.7 |
| 20260501222104 | 7 | 44 | 0.0 | 0.0 | 0.03 | 0.64 | 0.64 | 81 | 1013.7 |
| 20260501221536 | 7 | 44 | 0.0 | 0.0 | 0.03 | 0.64 | 0.64 | 82 | 1013.7 |
| 20260501221027 | 7 | 44 | 0.0 | 0.0 | 0.03 | 0.64 | 0.64 | 83 | 1013.5 |
| 20260501220539 | 7 | 44 | 0.0 | 0.0 | 0.03 | 0.64 | 0.64 | 83 | 1013.6 |
| 20260501220031 | 7 | 44 | 0.0 | 0.0 | 0.03 | 0.64 | 0.64 | 83 | 1013.6 |
| 20260501215527 | 7 | 44 | 0.0 | 0.0 | 0.03 | 0.64 | 0.64 | 84 | 1013.6 |
| 20260501215039 | 7 | 44 | 0.0 | 0.0 | 0.05 | 0.64 | 0.64 | 84 | 1013.6 |
| 20260501214551 | 7 | 44 | 0.0 | 0.0 | 0.03 | 0.61 | 0.61 | 84 | 1013.5 |
| 20260501214102 | 7 | 44 | 0.0 | 3.2 | 0.03 | 0.61 | 0.61 | 83 | 1013.5 |
| 20260501213553 | 7 | 44 | 0.0 | 6.4 | 0.03 | 0.61 | 0.61 | 84 | 1013.5 |
| 20260501213044 | 7 | 44 | 0.0 | 6.4 | 0.03 | 0.61 | 0.61 | 85 | 1013.6 |
| 20260501212536 | 7 | 44 | 1.6 | 6.4 | 0.03 | 0.61 | 0.61 | 86 | 1013.5 |
| 20260501212029 | 7 | 44 | 0.0 | 6.4 | 0.03 | 0.61 | 0.61 | 87 | 1013.5 |
| 20260501211601 | 7 | 44 | 0.0 | 8.0 | 0.03 | 0.61 | 0.61 | 88 | 1013.4 |
| 20260501211032 | 7 | 42 | 1.6 | 8.0 | 0.05 | 0.61 | 0.61 | 88 | 1013.3 |
| 20260501210542 | 6 | 42 | 0.0 | 6.4 | 0.05 | 0.61 | 0.61 | 88 | 1013.2 |
| 20260501210038 | 7 | 42 | 0.0 | 9.7 | 0.05 | 0.61 | 0.61 | 90 | 1013.1 |
| 20260501205530 | 7 | 42 | 4.8 | 9.7 | 0.05 | 0.61 | 0.61 | 91 | 1013.1 |
| 20260501205042 | 7 | 48 | 0.0 | 6.4 | 0.03 | 0.58 | 0.58 | 92 | 1013.1 |
| 20260501204535 | 6 | 48 | 0.0 | 8.0 | 0.03 | 0.58 | 0.58 | 93 | 1013.1 |
| 20260501204027 | 6 | 48 | 1.6 | 8.0 | 0.03 | 0.58 | 0.58 | 93 | 1013.1 |
| 20260501203538 | 6 | 48 | 0.0 | 4.8 | 0.03 | 0.58 | 0.58 | 94 | 1013.0 |
| 20260501203030 | 6 | 48 | 0.0 | 3.2 | 0.05 | 0.58 | 0.58 | 93 | 1012.9 |
| 20260501202541 | 6 | 48 | 0.0 | 9.7 | 0.05 | 0.58 | 0.58 | 94 | 1012.9 |
| 20260501202037 | 6 | 48 | 0.0 | 8.0 | 0.05 | 0.58 | 0.58 | 94 | 1012.9 |
| 20260501201529 | 6 | 48 | 0.0 | 4.8 | 0.05 | 0.58 | 0.58 | 94 | 1013.0 |
| 20260501201101 | 6 | 48 | 0.0 | 4.8 | 0.03 | 0.56 | 0.56 | 94 | 1013.0 |
| 20260501200532 | 6 | 48 | 0.0 | 4.8 | 0.05 | 0.56 | 0.56 | 94 | 1013.0 |
| 20260501200044 | 6 | 48 | 0.0 | 3.2 | 0.05 | 0.56 | 0.56 | 95 | 1013.0 |
| 20260501195536 | 6 | 48 | 0.0 | 4.8 | 0.05 | 0.56 | 0.56 | 95 | 1012.9 |
| 20260501195028 | 6 | 48 | 0.0 | 9.7 | 0.05 | 0.56 | 0.56 | 95 | 1012.9 |
| 20260501194541 | 6 | 47 | 6.4 | 9.7 | 0.05 | 0.56 | 0.56 | 95 | 1012.8 |
| 20260501194033 | 6 | 49 | 0.0 | 9.7 | 0.05 | 0.56 | 0.56 | 95 | 1012.9 |
| 20260501193549 | 6 | 49 | 0.0 | 9.7 | 0.08 | 0.56 | 0.56 | 95 | 1012.8 |
| 20260501193041 | 6 | 28 | 3.2 | 8.0 | 0.05 | 0.53 | 0.53 | 95 | 1012.8 |
| 20260501192554 | 6 | 47 | 3.2 | 16.1 | 0.05 | 0.53 | 0.53 | 95 | 1012.8 |
| 20260501192046 | 6 | 93 | 3.2 | 16.1 | 0.05 | 0.53 | 0.53 | 95 | 1012.8 |
| 20260501191538 | 6 | 31 | 3.2 | 11.3 | 0.08 | 0.53 | 0.53 | 95 | 1012.8 |
| 20260501191030 | 6 | 334 | 1.6 | 11.3 | 0.08 | 0.53 | 0.53 | 95 | 1012.7 |
| 20260501190542 | 6 | 5 | 3.2 | 11.3 | 0.05 | 0.51 | 0.51 | 95 | 1012.6 |
| 20260501190037 | 6 | 17 | 1.6 | 14.5 | 0.05 | 0.51 | 0.51 | 96 | 1012.7 |
| 20260501185529 | 6 | 37 | 1.6 | 14.5 | 0.05 | 0.51 | 0.51 | 96 | 1012.7 |
| 20260501185044 | 6 | 30 | 0.0 | 14.5 | 0.08 | 0.51 | 0.51 | 96 | 1012.6 |
| 20260501184536 | 6 | 65 | 1.6 | 12.9 | 0.08 | 0.51 | 0.51 | 95 | 1012.6 |
| 20260501184028 | 6 | 30 | 4.8 | 17.7 | 0.08 | 0.51 | 0.51 | 95 | 1012.5 |
| 20260501183539 | 6 | 32 | 4.8 | 19.3 | 0.08 | 0.48 | 0.48 | 96 | 1012.4 |
| 20260501183031 | 6 | 22 | 8.0 | 19.3 | 0.08 | 0.48 | 0.48 | 95 | 1012.4 |
| 20260501182543 | 6 | 34 | 1.6 | 9.7 | 0.08 | 0.48 | 0.48 | 96 | 1012.4 |
| 20260501182035 | 6 | 30 | 1.6 | 8.0 | 0.08 | 0.48 | 0.48 | 96 | 1012.3 |
| 20260501181527 | 6 | 30 | 0.0 | 6.4 | 0.05 | 0.46 | 0.46 | 95 | 1012.2 |
| 20260501181100 | 6 | 30 | 0.0 | 6.4 | 0.05 | 0.46 | 0.46 | 95 | 1012.2 |
| 20260501180534 | 6 | 30 | 0.0 | 14.5 | 0.05 | 0.46 | 0.46 | 95 | 1012.2 |
| 20260501180027 | 6 | 30 | 0.0 | 14.5 | 0.05 | 0.46 | 0.46 | 95 | 1012.2 |
| 20260501175600 | 6 | 27 | 0.0 | 6.4 | 0.08 | 0.46 | 0.46 | 95 | 1012.1 |
| 20260501175031 | 6 | 27 | 1.6 | 6.4 | 0.05 | 0.43 | 0.43 | 95 | 1012.1 |
| 20260501174543 | 6 | 26 | 0.0 | 6.4 | 0.05 | 0.43 | 0.43 | 95 | 1012.1 |
| 20260501174035 | 6 | 26 | 0.0 | 9.7 | 0.05 | 0.43 | 0.43 | 95 | 1012.1 |
| 20260501173527 | 6 | 27 | 1.6 | 11.3 | 0.03 | 0.41 | 0.41 | 95 | 1011.9 |
| 20260501173059 | 6 | 26 | 4.8 | 11.3 | 0.03 | 0.41 | 0.41 | 95 | 1011.8 |
| 20260501172550 | 6 | 30 | 3.2 | 9.7 | 0.05 | 0.41 | 0.41 | 95 | 1011.7 |
| 20260501172040 | 6 | 33 | 0.0 | 4.8 | 0.05 | 0.41 | 0.41 | 95 | 1011.8 |
| 20260501171536 | 6 | 33 | 0.0 | 4.8 | 0.05 | 0.41 | 0.41 | 95 | 1011.9 |
| 20260501171047 | 6 | 33 | 0.0 | 0.0 | 0.08 | 0.41 | 0.41 | 95 | 1012.0 |
| 20260501170539 | 6 | 33 | 0.0 | 0.0 | 0.08 | 0.41 | 0.41 | 95 | 1012.1 |
| 20260501170051 | 6 | 33 | 0.0 | 0.0 | 0.08 | 0.41 | 0.41 | 95 | 1011.9 |
| 20260501165542 | 6 | 33 | 0.0 | 0.0 | 0.05 | 0.38 | 0.38 | 95 | 1011.8 |
| 20260501165033 | 6 | 33 | 0.0 | 0.0 | 0.05 | 0.38 | 0.38 | 95 | 1011.7 |
| 20260501164605 | 6 | 33 | 0.0 | 0.0 | 0.08 | 0.38 | 0.38 | 95 | 1011.8 |
| 20260501164035 | 6 | 33 | 0.0 | 9.7 | 0.08 | 0.38 | 0.38 | 95 | 1011.9 |
| 20260501163527 | 6 | 33 | 4.8 | 9.7 | 0.08 | 0.38 | 0.38 | 95 | 1011.9 |
| 20260501163039 | 6 | 36 | 0.0 | 4.8 | 0.10 | 0.38 | 0.38 | 95 | 1011.8 |
| 20260501162535 | 6 | 39 | 0.0 | 4.8 | 0.08 | 0.36 | 0.36 | 95 | 1011.7 |
| 20260501162047 | 6 | 39 | 0.0 | 9.7 | 0.08 | 0.36 | 0.36 | 95 | 1011.8 |
| 20260501161539 | 6 | 38 | 0.0 | 9.7 | 0.08 | 0.38 | 0.36 | 95 | 1012.0 |
| 20260501161029 | 6 | 38 | 0.0 | 8.0 | 0.05 | 0.36 | 0.33 | 95 | 1011.8 |
| 20260501160541 | 6 | 40 | 1.6 | 9.7 | 0.05 | 0.36 | 0.33 | 95 | 1011.7 |
| 20260501160032 | 6 | 40 | 1.6 | 9.7 | 0.08 | 0.36 | 0.33 | 95 | 1011.8 |
| 20260501155604 | 6 | 41 | 0.0 | 1.6 | 0.08 | 0.36 | 0.33 | 95 | 1011.8 |
| 20260501155035 | 6 | 41 | 0.0 | 0.0 | 0.08 | 0.36 | 0.33 | 95 | 1011.8 |